Overview Statistics Trail Chart Weather Telemetry Raw packets
 

This is the latest recevied weather packets stored in our database for station/object G4WLC-1. If no packets are shown the sender has not sent any weather packets the latest 10 day(s).

<< 100 101 102 103 104 105 106 >>
Time Temp. Humidity Pressure Rain* Wind** Luminosity Snow
1787912241 17.22° C 91% 1005.8 hPa 0.76 mm - - -
1787911941 17.22° C 91% 1005.8 hPa 0.76 mm - - -
1787911641 17.22° C 91% 1005.8 hPa 0.51 mm - - -
1787911341 17.22° C 91% 1005.9 hPa 0.25 mm - - -
1787911041 17.22° C 91% 1005.8 hPa 0.25 mm - - -
1787910741 17.22° C 91% 1005.8 hPa 0.25 mm - - -
1787910441 17.22° C 91% 1005.7 hPa 0.25 mm - - -
1787910141 17.78° C 91% 1005.8 hPa 0 mm - - -
1787909841 17.78° C 91% 1005.9 hPa 0.76 mm - - -
1787909541 17.22° C 92% 1005.7 hPa 0.76 mm - - -
1787909241 17.22° C 92% 1005.7 hPa 0.76 mm - - -
1787908941 17.22° C 92% 1005.7 hPa 0.76 mm - - -
1787908641 17.22° C 93% 1005.7 hPa 0.76 mm - - -
1787908341 16.67° C 92% 1005.7 hPa 0.76 mm - - -
1787908041 16.67° C 92% 1005.7 hPa 0.76 mm - - -
1787907741 16.67° C 92% 1005.8 hPa 0.76 mm - - -
1787907441 16.11° C 92% 1005.7 hPa 0.76 mm - - -
1787907141 16.11° C 92% 1005.8 hPa 1.02 mm - - -
1787906841 16.11° C 92% 1005.8 hPa 1.02 mm - - -
1787906541 16.11° C 91% 1005.8 hPa 1.02 mm - - -
1787906241 16.67° C 91% 1005.7 hPa 0.25 mm - - -
1787905941 16.67° C 91% 1005.9 hPa 0.25 mm - - -
1787905641 16.67° C 91% 1005.9 hPa 0.25 mm - - -
1787905341 16.67° C 92% 1005.9 hPa 0.25 mm - - -
1787905041 16.11° C 92% 1006 hPa 0.25 mm - - -

* Rain latest hour (hover to see other rain measurements)
** Current wind speed in m/s (hover to see current wind gust speed)